WetterOnline ( https://www.wetteronline.de )

Wetter aktuell Elleben

Aktuelles Wetter: Schmücke (948m)

6-stündlich | Neueste Meldungen
Ortszeit Temperatur Wetter
So, 29.03. 1:00 -0.5° C bewölkt
Sa, 28.03. 19:00 4.7° C wolkenlos
Sa, 28.03. 13:00 7.5° C wolkenlos
Sa, 28.03. 7:00 2.4° C wolkenlos
Sa, 28.03. 1:00 3.5° C wolkenlos
Fr, 27.03. 19:00 7.0° C wolkenlos
Fr, 27.03. 13:00 7.2° C wolkenlos
Fr, 27.03. 7:00 0.3° C wolkenlos
Ortszeit Temperatur Wetter
So, 29.03. 3:00 -0.4° C bewölkt
So, 29.03. 1:50 -0.4° C bewölkt
So, 29.03. 1:40 -0.4° C bedeckt
So, 29.03. 1:30 -0.4° C bewölkt
So, 29.03. 1:20 -0.4° C bewölkt
So, 29.03. 1:10 -0.4° C bedeckt
So, 29.03. 1:00 -0.5° C bewölkt
So, 29.03. 0:30 -0.5° C leicht bewölkt
So, 29.03. 0:00 -0.2° C wolkenlos
Sa, 28.03. 23:30 0.4° C wolkenlos
Sa, 28.03. 23:00 1.2° C wolkenlos
Ortszeit Relative Feuchte Sichtweite
So, 29.03. 1:00 93% 7 km
Sa, 28.03. 19:00 52% 30 km
Sa, 28.03. 13:00 53% 20 km
Sa, 28.03. 7:00 74% 13 km
Sa, 28.03. 1:00 69% 23 km
Fr, 27.03. 19:00 61% 23 km
Fr, 27.03. 13:00 52% 22 km
Fr, 27.03. 7:00 65% 26 km
Ortszeit Relative Feuchte Sichtweite
So, 29.03. 3:00 94% 5.0 km
So, 29.03. 1:50 94% -
So, 29.03. 1:40 94% -
So, 29.03. 1:30 93% 7 km
So, 29.03. 1:20 93% -
So, 29.03. 1:10 93% -
So, 29.03. 1:00 93% 7 km
So, 29.03. 0:30 90% 11 km
So, 29.03. 0:00 84% 16 km
Sa, 28.03. 23:30 77% 19 km
Sa, 28.03. 23:00 75% 20 km
Ortszeit Niederschlagsmenge Niederschlagsart
So, 29.03. 1:00 0.0 l/m2 in 6 Std. -
Sa, 28.03. 19:00 0.0 l/m2 in 12 Std. -
Sa, 28.03. 13:00 0.0 l/m2 in 6 Std. -
Sa, 28.03. 7:00 0.0 l/m2 in 12 Std. -
Sa, 28.03. 1:00 0.0 l/m2 in 6 Std. -
Fr, 27.03. 19:00 0.0 l/m2 in 12 Std. -
Fr, 27.03. 13:00 0.0 l/m2 in 6 Std. -
Fr, 27.03. 7:00 0.0 l/m2 in 12 Std. -
Ortszeit Niederschlagsmenge Niederschlagsart
So, 29.03. 3:00 0.0 l/m2 in 1 Std. -
So, 29.03. 1:50 keine Meldung -
So, 29.03. 1:40 keine Meldung -
So, 29.03. 1:30 0.0 l/m2 in 1 Std. -
So, 29.03. 1:20 keine Meldung -
So, 29.03. 1:10 keine Meldung -
So, 29.03. 1:00 0.0 l/m2 in 1 Std. -
So, 29.03. 0:30 0.0 l/m2 in 1 Std. -
So, 29.03. 0:00 0.0 l/m2 in 1 Std. -
Sa, 28.03. 23:30 0.0 l/m2 in 1 Std. -
Sa, 28.03. 23:00 0.0 l/m2 in 1 Std. -
Ortszeit Stärke Spitze Richtung
km/h Bft. km/h Grad Sektor
So, 29.03. 1:00 14 3 36 10° N
Sa, 28.03. 19:00 13 3 33 30° NO
Sa, 28.03. 13:00 14 3 40 50° NO
Sa, 28.03. 7:00 20 4 35 40° NO
Sa, 28.03. 1:00 18 3 32 50° NO
Fr, 27.03. 19:00 15 3 44 40° NO
Fr, 27.03. 13:00 17 3 46 40° NO
Fr, 27.03. 7:00 22 4 48 70° O
Ortszeit Stärke Spitze Richtung
km/h Bft. km/h Grad Sektor
So, 29.03. 3:00 14 3 32 10° N
So, 29.03. 1:50 14 3 - 10° N
So, 29.03. 1:40 17 3 - 360° N
So, 29.03. 1:30 14 3 29 10° N
So, 29.03. 1:20 14 3 - 10° N
So, 29.03. 1:10 15 3 - 10° N
So, 29.03. 1:00 14 3 29 10° N
So, 29.03. 0:30 15 3 28 360° N
So, 29.03. 0:00 17 3 37 10° N
Sa, 28.03. 23:30 18 3 36 10° N
Sa, 28.03. 23:00 18 3 32 10° N
Ortszeit Untergrenze Bedeckung Gattung
total tief tief mittel hoch
So, 29.03. 1:00 90 m 7/8 7/8 - - -
Sa, 28.03. 19:00 - 0/8 0/8 - - -
Sa, 28.03. 13:00 - 0/8 0/8 - - -
Sa, 28.03. 7:00 - 0/8 0/8 - - -
Sa, 28.03. 1:00 - 0/8 0/8 - - -
Fr, 27.03. 19:00 8700 m 0/8 0/8 - - -
Fr, 27.03. 13:00 - 0/8 0/8 - - -
Fr, 27.03. 7:00 6600 m 0/8 0/8 - - -
Ortszeit Bedeckungsgrad in Achtel und Wolkenuntergrenze
So, 29.03. 3:00 7(60m)
So, 29.03. 1:50 7(60m)
So, 29.03. 1:40 7(60m) 8(150m) 8(390m)
So, 29.03. 1:30 7(60m)
So, 29.03. 1:20 7(60m)
So, 29.03. 1:10 8(60m)
So, 29.03. 1:00 7(90m)
So, 29.03. 0:30 4(120m)
So, 29.03. 0:00 keine Wolken
Sa, 28.03. 23:30 keine Wolken
Sa, 28.03. 23:00 keine Wolken
Ortszeit Stationsdruck (hPa) Tendenz (hPa in 3 Std.)
So, 29.03. 1:00 909 0,0
Sa, 28.03. 19:00 909 - 0,1
Sa, 28.03. 13:00 910 0,0
Sa, 28.03. 7:00 909 + 0,1
Sa, 28.03. 1:00 910 - 0,4
Fr, 27.03. 19:00 909 + 0,5
Fr, 27.03. 13:00 909 + 0,4
Fr, 27.03. 7:00 909 - 0,3
Ortszeit Stationsdruck (hPa) Tendenz (hPa in 3 Std.)
So, 29.03. 3:00 909 + 0,1
So, 29.03. 1:50 909 keine Meldung
So, 29.03. 1:40 909 keine Meldung
So, 29.03. 1:30 909 + 0,1
So, 29.03. 1:20 909 keine Meldung
So, 29.03. 1:10 909 keine Meldung
So, 29.03. 1:00 909 0,0
So, 29.03. 0:30 909 0,0
So, 29.03. 0:00 909 - 0,2
Sa, 28.03. 23:30 909 - 0,4
Sa, 28.03. 23:00 909 - 0,3
Ortszeit Schneehöhe (cm)
So, 29.03. 1:00 0
Sa, 28.03. 19:00 0
Sa, 28.03. 13:00 0
Sa, 28.03. 7:00 0
Sa, 28.03. 1:00 0
Fr, 27.03. 19:00 0
Fr, 27.03. 13:00 0
Fr, 27.03. 7:00 0
Ortszeit Schneehöhe (cm)
So, 29.03. 3:00 0
So, 29.03. 1:50 0
So, 29.03. 1:40 0
So, 29.03. 1:30 0
So, 29.03. 1:20 0
So, 29.03. 1:10 0
So, 29.03. 1:00 0
So, 29.03. 0:30 0
So, 29.03. 0:00 0
Sa, 28.03. 23:30 0
Sa, 28.03. 23:00 0
Link zu dieser Seite / Seite empfehlen

Das Wetter in ...